Location: ???? ??
(36.0534°N, 43.5630°E)
Time: 19:44:24
(UTC+00:00)

Cosmos 405 - Pass Details

Date: 18 September 2019
Orbit: 452 x 467 km, 81.3° (Epoch: 19 October)

Event Time Altitude Azimuth Distance (km) Brightness Sun altitude
Rises 15:40:12 0° 350° (N) 2,480 6.9 -7.0°
Reaches altitude 10° 15:42:17 10° 350° (N) 1,600 5.9 -7.5°
Maximum altitude 15:45:47 84° 265° (W) 462 3.0 -8.2°
Drops below altitude 10° 15:49:14 10° 175° (S) 1,580 5.5 -8.9°
Sets 15:51:17 0° 174° (S) 2,446 6.5 -9.3°
